Plymouth, NH

9:18 PM EST on December 07, 2016 (GMT -0500)
Plymouth

Weather History for K1P1 - September, 2013

Change the Weather History Date:

Saturday, September 14, 2013

  Actual Average (KLCI) Record (KLCI)
Temperature  
Mean Temperature 54 °F -  
Max Temperature 60 °F 73 °F 84 °F (2005)
Min Temperature 48 °F 51 °F 39 °F (1985)
Degree Days  
Heating Degree Days 10    
Growing Degree Days 4 (Base 50)    
Moisture  
Dew Point 49 °F    
Average Humidity 79    
Maximum Humidity 94    
Minimum Humidity 65    
Precipitation  
Precipitation 0.00 in - - ()
Sea Level Pressure  
Sea Level Pressure 29.92 in    
Wind  
Wind Speed 8 mph (WNW)    
Max Wind Speed 15 mph    
Max Gust Speed 21 mph    
Visibility 10 miles    
Events Rain    
Averages and records for this station are not official NWS values.
T = Trace of Precipitation, MM = Missing Value Source: NWS Daily Summary

Daily Weather History Graph

Daily Weather History Graph

Search for Another Location

Airport or City:

Trip Planner

Search our weather history database for the weather conditions in past years. The results will help you decide how hot, cold, wet, or windy it might be!

Date:

Astronomy

Sep. 14, 2013 Rise Set
Actual Time 6:25 AM EDT 6:58 PM EDT
Civil Twilight 5:56 AM EDT 7:27 PM EDT
Nautical Twilight 5:22 AM EDT 8:01 PM EDT
Astronomical Twilight 4:46 AM EDT 8:36 PM EDT
Moon 3:45 PM EDT (9/14) 12:45 AM EDT (9/14)
Length of Visible Light 13h 31m
Length of Day
12h 33m
Waxing Gibbous, 72% of the Moon is Illuminated
Sep 14
Waxing Gibbous
Sep 19
Full
Sep 26
Last Quarter
Oct 4
New
Oct 11
First Quarter

Hourly Weather History & Observations

Time (EDT) Temp. Dew Point Humidity Pressure Visibility Wind Dir Wind Speed Gust Speed Precip Events Conditions
12:15 AM 56.3 °F 50.5 °F 81% 29.78 in 10.0 mi West 8.1 mph - N/A   Overcast
12:35 AM 56.3 °F 50.5 °F 81% 29.78 in 10.0 mi West 9.2 mph - N/A   Overcast
12:55 AM 55.9 °F 50.4 °F 82% 29.79 in 10.0 mi West 9.2 mph - N/A   Overcast
1:15 AM 55.8 °F 50.4 °F 82% 29.79 in 10.0 mi West 8.1 mph - N/A   Mostly Cloudy
1:35 AM 55.9 °F 50.4 °F 82% 29.79 in 10.0 mi West 9.2 mph - N/A   Overcast
1:55 AM 55.8 °F 50.4 °F 82% 29.79 in 10.0 mi West 10.4 mph - N/A   Overcast
2:15 AM 55.6 °F 50.4 °F 83% 29.79 in 10.0 mi West 8.1 mph - N/A   Mostly Cloudy
2:35 AM 55.4 °F 50.4 °F 83% 29.80 in 10.0 mi West 8.1 mph 16.1 mph N/A   Mostly Cloudy
2:55 AM 55.4 °F 50.4 °F 83% 29.80 in 10.0 mi West 10.4 mph 16.1 mph N/A   Overcast
3:15 AM 54.9 °F 50.2 °F 84% 29.81 in 10.0 mi West 8.1 mph - N/A   Overcast
3:35 AM 54.9 °F 50.2 °F 84% 29.81 in 10.0 mi West 10.4 mph 17.3 mph N/A   Overcast
3:55 AM 54.7 °F 50.2 °F 85% 29.82 in 10.0 mi West 9.2 mph - N/A   Light Drizzle
4:15 AM 54.5 °F 50.0 °F 85% 29.82 in 10.0 mi West 8.1 mph - N/A   Overcast
4:35 AM 54.5 °F 50.0 °F 85% 29.82 in 10.0 mi West 6.9 mph - N/A   Overcast
4:55 AM 54.5 °F 49.6 °F 84% 29.82 in 10.0 mi West 9.2 mph - N/A Rain Light Rain
5:15 AM 54.0 °F 49.5 °F 85% 29.82 in 10.0 mi West 8.1 mph 16.1 mph N/A   Overcast
5:35 AM 54.1 °F 49.3 °F 84% 29.82 in 10.0 mi West 9.2 mph 16.1 mph N/A   Overcast
5:55 AM 54.1 °F 49.1 °F 83% 29.83 in 10.0 mi West 11.5 mph 17.3 mph N/A   Overcast
6:15 AM 54.1 °F 49.1 °F 83% 29.84 in 10.0 mi West 6.9 mph - N/A   Overcast
6:35 AM 53.8 °F 48.6 °F 82% 29.84 in 10.0 mi West 10.4 mph - N/A   Mostly Cloudy
6:55 AM 54.0 °F 48.6 °F 82% 29.85 in 10.0 mi West 8.1 mph - N/A   Mostly Cloudy
7:15 AM 54.0 °F 48.6 °F 82% 29.86 in 10.0 mi West 8.1 mph - N/A   Overcast
7:35 AM 53.8 °F 48.2 °F 81% 29.87 in 10.0 mi West 8.1 mph 16.1 mph N/A   Overcast
7:55 AM 54.5 °F 48.2 °F 79% 29.88 in 10.0 mi West 10.4 mph - N/A   Mostly Cloudy
8:15 AM 55.4 °F 48.2 °F 77% 29.88 in 10.0 mi West 8.1 mph 16.1 mph N/A   Mostly Cloudy
8:35 AM 56.8 °F 48.7 °F 74% 29.89 in 10.0 mi West 6.9 mph 17.3 mph N/A   Mostly Cloudy
8:55 AM 55.4 °F 48.4 °F 77% 29.90 in 10.0 mi West 9.2 mph - N/A   Overcast
9:15 AM 56.3 °F 50.4 °F 80% 29.91 in 4.0 mi WNW 9.2 mph 16.1 mph N/A Rain Light Rain
9:35 AM 55.6 °F 49.1 °F 79% 29.91 in 10.0 mi West 9.2 mph 16.1 mph N/A   Overcast
9:55 AM 55.6 °F 48.7 °F 78% 29.91 in 10.0 mi West 9.2 mph 16.1 mph N/A   Overcast
10:15 AM 57.2 °F 49.1 °F 74% 29.92 in 10.0 mi West 9.2 mph - N/A   Overcast
10:35 AM 58.5 °F 48.9 °F 71% 29.92 in 10.0 mi West 11.5 mph 18.4 mph N/A   Mostly Cloudy
10:55 AM 59.4 °F 49.3 °F 69% 29.91 in 10.0 mi West 10.4 mph 17.3 mph N/A   Mostly Cloudy
11:15 AM 59.2 °F 49.5 °F 70% 29.92 in 10.0 mi West 8.1 mph - N/A   Mostly Cloudy
11:35 AM 58.6 °F 49.1 °F 71% 29.92 in 10.0 mi West 11.5 mph 16.1 mph N/A   Overcast
11:55 AM 59.2 °F 49.3 °F 70% 29.92 in 10.0 mi WNW 11.5 mph 20.7 mph N/A   Overcast
12:15 PM 59.2 °F 49.3 °F 70% 29.92 in 10.0 mi WNW 15.0 mph 20.7 mph N/A   Mostly Cloudy
12:35 PM 60.8 °F 50.5 °F 69% 29.93 in 10.0 mi WNW 12.7 mph 19.6 mph N/A   Scattered Clouds
12:55 PM 59.9 °F 48.4 °F 66% 29.93 in 10.0 mi NNW 10.4 mph 17.3 mph N/A   Mostly Cloudy
1:15 PM 60.8 °F 48.9 °F 65% 29.93 in 10.0 mi WNW 11.5 mph 17.3 mph N/A   Scattered Clouds
1:35 PM 59.9 °F 48.9 °F 67% 29.93 in 10.0 mi West 11.5 mph - N/A   Scattered Clouds
1:55 PM 60.1 °F 49.3 °F 67% 29.92 in 10.0 mi West 11.5 mph 18.4 mph N/A   Mostly Cloudy
2:15 PM 58.5 °F 48.9 °F 71% 29.92 in 10.0 mi West 10.4 mph 17.3 mph N/A   Mostly Cloudy
2:35 PM 58.1 °F 48.7 °F 71% 29.93 in 10.0 mi West 11.5 mph 19.6 mph N/A   Scattered Clouds
2:55 PM 58.1 °F 48.6 °F 71% 29.93 in 10.0 mi West 10.4 mph 18.4 mph N/A   Mostly Cloudy
3:15 PM 58.5 °F 48.4 °F 69% 29.94 in 10.0 mi West 9.2 mph 18.4 mph N/A   Scattered Clouds
3:35 PM 57.7 °F 48.6 °F 71% 29.94 in 10.0 mi West 8.1 mph 17.3 mph N/A   Mostly Cloudy
3:55 PM 57.4 °F 48.7 °F 73% 29.95 in 10.0 mi West 8.1 mph - N/A   Mostly Cloudy
4:15 PM 57.6 °F 48.6 °F 72% 29.95 in 10.0 mi West 5.8 mph - N/A   Mostly Cloudy
4:35 PM 57.7 °F 48.7 °F 72% 29.96 in 10.0 mi West 4.6 mph - N/A   Overcast
4:55 PM 57.6 °F 48.7 °F 72% 29.97 in 10.0 mi WNW 5.8 mph - N/A   Overcast
5:15 PM 57.6 °F 48.7 °F 72% 29.98 in 10.0 mi WNW 4.6 mph - N/A   Overcast
5:35 PM 57.7 °F 49.1 °F 73% 29.98 in 10.0 mi Calm Calm - N/A   Overcast
5:55 PM 58.5 °F 50.0 °F 73% 29.99 in 10.0 mi Calm Calm - N/A   Overcast
6:15 PM 58.1 °F 50.0 °F 74% 29.99 in 10.0 mi WNW 3.5 mph - N/A   Overcast
6:35 PM 57.4 °F 49.8 °F 76% 29.99 in 10.0 mi Calm Calm - N/A   Overcast
6:55 PM 57.2 °F 49.1 °F 74% 29.99 in 10.0 mi WNW 3.5 mph - N/A   Overcast
7:15 PM 56.7 °F 49.1 °F 76% 30.00 in 10.0 mi Calm Calm - N/A   Overcast
7:35 PM 55.9 °F 49.5 °F 79% 30.01 in 5.0 mi WNW 3.5 mph - N/A   Haze
7:55 PM 54.7 °F 49.6 °F 83% 30.02 in 10.0 mi Calm Calm - N/A   Overcast
8:15 PM 52.3 °F 48.4 °F 86% 30.02 in 10.0 mi Calm Calm - N/A   Scattered Clouds
8:35 PM 51.3 °F 49.1 °F 92% 30.03 in 10.0 mi Calm Calm - N/A   Clear
8:55 PM 50.2 °F 48.2 °F 93% 30.03 in 10.0 mi Calm Calm - N/A   Clear
9:15 PM 50.0 °F 48.2 °F 94% 30.04 in 10.0 mi Calm Calm - N/A   Clear
9:35 PM 50.9 °F 48.0 °F 90% 30.04 in 10.0 mi NNW 3.5 mph - N/A   Clear
9:55 PM 50.0 °F 47.5 °F 91% 30.04 in 10.0 mi NW 4.6 mph - N/A   Clear
10:15 PM 50.9 °F 48.2 °F 90% 30.04 in 10.0 mi WNW 5.8 mph - N/A   Clear
10:35 PM 50.4 °F 47.7 °F 90% 30.05 in 10.0 mi WNW 4.6 mph - N/A   Clear
10:55 PM 49.8 °F 47.3 °F 91% 30.05 in 10.0 mi WNW 3.5 mph - N/A   Clear
11:15 PM 49.8 °F 46.9 °F 90% 30.05 in 10.0 mi WNW 3.5 mph - N/A   Clear
11:35 PM 49.5 °F 46.4 °F 89% 30.05 in 10.0 mi West 3.5 mph - N/A   Clear
11:55 PM 48.7 °F 46.4 °F 92% 30.06 in 10.0 mi Calm Calm - N/A   Clear